星链-3752 (STARLINK-3752 )

导读 | 星芒AI

STARLINK-3752 是 SpaceX Starlink 项目中的一颗低轨通信卫星,属于该星座的第二批部署任务(Transporter 2)。该卫星于2021年12月3日通过猎鹰9号火箭发射升空,运行在约550公里的近地轨道上,主要用于提供全球宽带互联网服务。Starlink 卫星采用先进推进系统和激光通信技术,旨在实现高速、低延迟的网络连接,尤其服务于偏远地区。STARLINK-3752 在轨运行稳定,是 SpaceX 打造全球卫星互联网网络的重要组成部分。

基本信息
目录编号:
52312
目录名称:
STARLINK-3752
国际标识:
2022-041BD
轨道中心:
EARTH
卫星名称:
星链-3752
卫星全名:
星链-3752 (STARLINK-3752 )
卫星状态:
在轨 (已飞行1340 天)
发射日期:
2022-04-21 UTC
国别 :
美国 (US)
星等 :
--
轨道信息
数据来源 国际轨道数据
星历时间: 2025-12-20T23:07:53+0800
9小时前
查看轨道信息
半长轴: 6917.885km
偏心率: 0.0001246
轨道倾角: 53.218°
近地点辐角 85.504°
升交点赤经 83.981°
平近点角 274.609°
近地点: 538.886km
远地点: 540.61km
周期: 95.438分钟
每日圈数: 15.088385
详细信息
固有亮度:
5
最大亮度:
2.5
卫星平台:
Starlink v1.5
覆盖范围:
全球
运营商:
太空探索技术公司
运营商所在国:
美国
制造商(研发单位):
太空探索技术公司
制造商所在国:
美国
使用方式:
暂无
卫星简介
星链(Starlink)计划是由太空探索技术公司(SpaceX)提出的一个巨型低轨卫星互联网星座项目,计划在2019年至2024年间在太空搭建由约1.2万颗卫星组成的“星链”网络,其中1584颗将部署在地球上空550千米处的近地轨道,并从2020年开始工作。该卫星仍在工作。
2D轨道图
3D轨道图
轨道高度分析图
轨道倾角分析图
轨道综合分析图
查看轨道综合分析图